Home   Weather   Førde   Past weeks

Flag for Norway Past Weather in Førde, Norway — Yesterday and Last 2 Weeks

46 °F

Rain showers. Overcast.

Feels Like: 41 °F
Forecast: 41 / 44 °F
Wind: 13 mph from Southwest

Location: Forde / Bringeland

Current Time: Oct 27, 2016 at 6:49:15 PM

Latest Report: Oct 27, 2016 at 5:50 PM

Visibility: 3 mi

Pressure: 29.71 "Hg

Humidity: 93%

Dew Point: 45 °F

Location of FørdeLocation

Past Weather in Førde — Graph


Førde Temperature Yesterday

Maximum temperature yesterday: 46 °F (at 6:20 PM)
Minimum temperature yesterday: 41 °F (at 6:50 AM)
Average temperature yesterday: 44 °F

High & Low Weather Summary for the Past Weeks

High59 °F (Oct 14, 4:50 PM)100% (Oct 26, 5:50 PM)30.45 "Hg (Oct 26, 5:50 PM)
Low34 °F (Oct 13, 5:50 AM)14% (Oct 15, 1:50 PM)29.71 "Hg (Oct 27, 5:20 PM)
Average45 °F61%30.18 "Hg
* Reported Oct 12 5:20 PM — Oct 27 5:20 PM, Førde, Weather by CustomWeather, © 2016

Note: Actual official high and low records may vary slightly from our data, if they occured in-between our weather recording intervals... More about our weather records


Førde Weather History for the Previous 24 Hours

Scroll right to see more
Time TempWeatherWind HumidityBarometerVisibility
5:20 PM
Thu, Oct 27
46 °FRain showers. Broken clouds.18 mph93%29.71 "Hg3 mi
3:50 PM46 °FRain. Broken clouds.12 mph93%29.74 "Hg3 mi
3:20 PM46 °FRain. Broken clouds.12 mph93%29.74 "Hg4 mi
2:50 PM46 °FRain. Broken clouds.12 mph93%29.74 "Hg4 mi
12:50 PM46 °FRain. Broken clouds.14 mph100%29.80 "Hg4 mi
12:20 PM46 °FLight rain. Broken clouds.15 mph87%29.80 "Hg6 mi
11:50 AM45 °FLight rain. Broken clouds.15 mph93%29.83 "Hg6 mi
11:20 AM45 °FLight rain. Broken clouds.15 mph93%29.83 "Hg6 mi
10:50 AM45 °FLight rain. Broken clouds.14 mph93%29.83 "Hg6 mi
9:20 AM45 °FLight rain. Broken clouds.13 mph93%29.89 "Hg6 mi
8:20 AM45 °FLight rain. Partly cloudy.12 mph93%29.86 "Hg5 mi
7:50 AM45 °FLight rain. Partly cloudy.8 mph93%29.89 "Hg5 mi
7:20 AM45 °FLight rain. Partly cloudy.9 mph93%29.89 "Hg5 mi
6:50 AM43 °FLight rain. Partly cloudy.8 mph93%29.89 "Hg5 mi
6:20 AM45 °FLight rain. Partly cloudy.12 mph87%29.89 "Hg5 mi
5:50 AM43 °FLight rain. Partly cloudy.7 mph93%29.89 "HgN/A
11:20 PM
Wed, Oct 26
45 °FPartly cloudy.6 mph93%29.86 "HgN/A
10:50 PM45 °FQuite cool.5 mph93%29.86 "HgN/A
10:20 PM45 °FPartly cloudy.7 mph93%29.86 "HgN/A
9:50 PM45 °FPartly cloudy.8 mph93%29.86 "HgN/A
8:50 PM45 °FPartly cloudy.6 mph93%29.83 "HgN/A
8:20 PM45 °FPartly cloudy.5 mph93%29.83 "HgN/A
7:50 PM46 °FLight rain. Partly cloudy.7 mph93%29.83 "HgN/A
7:20 PM46 °FLight rain. Partly cloudy.9 mph93%29.80 "Hg4 mi
6:50 PM46 °FRain. Partly cloudy.6 mph93%29.80 "Hg4 mi
6:20 PM46 °FRain. Partly cloudy.10 mph93%29.80 "HgN/A
Weather by CustomWeather, © 2016

See weather overviewHow to use our weather pages